MDT,Max TemperatureF,Mean TemperatureF,Min TemperatureF,Max Dew PointF,MeanDew PointF,Min DewpointF,Max Humidity, Mean Humidity, Min Humidity, Max Sea Level PressureIn, Mean Sea Level PressureIn, Min Sea Level PressureIn, Max VisibilityMiles, Mean VisibilityMiles, Min VisibilityMiles, Max Wind SpeedMPH, Mean Wind SpeedMPH, Max Gust SpeedMPH,PrecipitationIn, CloudCover, Events, WindDirDegrees
2014-4-1,65,52,38,15,9,1,33,22,11,29.80,29.69,29.55,10,10,10,33,13,43,0.00,4,,219
2014-4-2,46,37,28,35,30,12,92,61,30,29.85,29.77,29.67,10,6,0,21,7,27,0.17,7,Fog-Snow,199
2014-4-3,50,38,26,31,27,15,100,64,28,30.09,29.86,29.74,10,6,0,18,8,31,0.12,5,Fog-Snow,287
2014-4-4,56,39,21,27,20,11,92,55,18,30.11,29.99,29.84,10,10,4,16,4,25,0.00,0,,162
2014-4-5,58,42,25,27,20,3,85,48,11,29.88,29.81,29.74,10,10,10,22,7,27,0.00,1,,244
2014-4-6,56,40,23,29,22,13,88,54,19,30.01,29.92,29.88,10,10,10,24,11,33,0.00,3,,22
2014-4-7,62,43,23,29,21,15,88,53,17,30.24,30.14,30.04,10,10,10,25,10,39,0.00,0,,7
2014-4-8,70,48,25,25,22,19,81,48,15,30.29,30.21,30.14,10,10,10,18,8,28,0.00,0,,28
2014-4-9,74,50,26,23,18,11,75,42,9,30.19,30.08,29.96,10,10,10,26,7,33,0.00,0,,62
2014-4-10,75,54,32,22,14,4,56,32,7,30.04,29.97,29.91,10,10,10,22,9,28,0.00,0,,342
2014-4-11,76,52,27,22,14,3,63,35,6,30.03,29.94,29.81,10,10,10,22,9,27,0.00,0,,110
2014-4-12,69,55,40,37,29,19,73,47,20,29.85,29.75,29.63,10,10,10,29,7,39,T,4,Rain-Thunderstorm,57
2014-4-13,56,45,34,40,32,22,89,58,26,29.96,29.74,29.61,10,10,2,32,8,42,0.14,7,Rain-Thunderstorm,17
2014-4-14,53,39,25,21,14,7,69,43,16,30.25,30.16,29.99,10,10,10,22,11,36,0.00,0,,346
2014-4-15,63,41,18,16,12,2,80,45,9,30.23,30.04,29.83,10,10,10,16,6,22,0.00,0,,82
2014-4-16,63,44,24,26,19,13,69,43,17,29.92,29.84,29.79,10,10,10,22,8,31,0.00,1,,24
2014-4-17,67,46,24,25,21,16,81,48,14,30.07,30.01,29.94,10,10,10,15,6,20,0.00,0,,27
2014-4-18,76,53,30,33,25,20,72,43,13,30.02,29.94,29.85,10,10,10,26,7,35,T,2,,204
2014-4-19,67,54,41,46,38,29,100,62,24,30.01,29.95,29.89,10,10,10,16,5,21,0.04,4,Rain,263
2014-4-20,73,55,36,39,32,25,92,55,17,30.06,30.00,29.95,10,10,10,21,9,29,0.00,1,,39
2014-4-21,76,56,35,33,29,23,75,46,16,30.14,30.06,29.99,10,10,10,18,5,26,0.00,2,,45
2014-4-22,79,58,37,35,28,23,70,43,16,29.99,29.81,29.60,10,10,10,26,12,35,0.00,2,,210
2014-4-23,64,49,33,28,17,9,42,28,13,29.94,29.75,29.60,10,10,10,25,12,33,0.00,3,,261
2014-4-24,66,44,21,13,9,-5,68,37,6,30.09,30.01,29.95,10,10,10,15,5,20,0.00,0,,81
2014-4-25,74,50,25,21,13,8,55,32,9,29.94,29.79,29.60,10,10,10,30,10,36,0.00,0,,204
2014-4-26,59,46,32,39,31,19,100,62,23,29.73,29.60,29.42,10,7,1,33,16,42,0.28,7,Rain-Snow,205
2014-4-27,51,42,32,37,31,18,100,63,26,29.82,29.72,29.61,10,9,2,26,9,36,0.05,7,Rain-Snow,294
2014-4-28,54,44,33,30,15,0,82,48,13,30.12,29.93,29.81,10,10,10,32,13,50,T,3,Rain,328
2014-4-29,54,40,25,21,17,13,68,44,20,30.20,30.17,30.12,10,10,10,30,13,40,0.00,1,,12
2014-4-30,58,41,24,21,18,15,75,49,22,30.23,30.15,30.08,10,10,10,25,9,36,0.00,1,,15